STARLINK-1790, 46691

Orbit data source: Space-Track

STARLINK-1790, 46691 is a payload satellite owned by SpaceX/Seattle (US) in LEO that was launched on Sun, 18 Oct 2020 UTC via an FALCON 9 launch vehicle from the Air Force Eastern Test Range (AFETR). Payload-class satellites include a variety of spacecraft equipped with specific instruments for various scientific and technological missions. These include communications satellites like Starlink; space stations such as the ISS; scientific satellites like the Hubble; Earth observation satellites from companies like Planet Labs, Umbra, and HawkEye 360; GPS; miniature CubeSats for education and research; and military/defense satellites.

Loading next visibility...
Identifier
46691, 2020-073X
Orbit
LEO
Country
Flag of USUS
Related business
Manufacturer
SpaceX/Seattle
Mission
Operational Commercial Communications
Bus & Motor
STARLINK, Unknown motor
Mass
260 kg wet, ~248 kg dry
Launch date (UTC)
2020-10-18 (5 years ago)
Launch vehicle
FALCON 9
Launch site
Air Force Eastern Test Range (AFETR)
Object type
Payload
Rocket body
Debris
Shape & HBR
Box + 1 Pan, 10.1 m
Radar Cross Section
13.562 m², Large (>1 m²)

Expand to show TLE details & history
Last TLE update: 17 hours ago

TLE from 17 hours ago
0 STARLINK-1790
1 46691U 20073X   25300.83334491  .02085187  00000-0  93859-1 0  9999
2 46691  53.0556 117.8047 0001054  74.6726 276.9686 15.17421845  5829
Epoch: 2025-10-27T20:00Z
TLE epoch observation values (Epoch: 2025-10-27T20:00:01.000Z)
Latitude
-6.80073°
Longitude
136.25396°
Altitude
515.565 km
Speed
7.607 km/s
True Right ascension
07h 30m 45s
True Declination
-6° 45' 32"
Sunlit
Object was in daylight at epoch
Visualization orbit readout
Latitude
Unknown
Longitude
Unknown
Altitude
Unknown
Speed
Unknown
Apparent Right ascension
Unknown
Apparent Declination
Unknown
Sunlit
N/A
Visualization observer readout
Local Sidereal Time
08:30:54
Azimuth
Unknown
Elevation
Unknown
Doppler factor
Unknown
Orbital elements
Apogee altitude
514.634 km
Perigee altitude
513.181 km
Semi-major axis
6,892.045 km
Eccentricity
0.00011
Inclination
53.0556°
RAAN
117.8047°
Arg. of periapsis
74.6726°
True anomaly
276.95661°
Mean anomaly
276.9686°
Eccentric anomaly
276.96261°
Mean motion
3.79333 °/min
Orbital period
94.9 mins
BSTAR
0.093859
Loading maneuver chart data...
Computing Atmospheric mass density...

Documentation

Showing up to 5 results
|